Time,TemperatureF,DewpointF,PressureIn,WindDirection,WindDirectionDegrees,WindSpeedMPH,WindSpeedGustMPH,Humidity,HourlyPrecipIn,Conditions,Clouds,dailyrainin,SoftwareType,DateUTC
2014-04-17 00:01:00,44.9,27.4,30.07,SSE,160,1.0,3.0,50,0.00,,,0.00,Wunderground v.1.15,2014-04-17 05:01:00,
2014-04-17 00:06:00,44.8,26.8,30.07,SSE,161,2.0,3.0,49,0.00,,,0.00,Wunderground v.1.15,2014-04-17 05:06:00,
2014-04-17 00:12:00,44.8,26.8,30.07,SSE,161,0.0,2.0,49,0.00,,,0.00,Wunderground v.1.15,2014-04-17 05:12:00,
2014-04-17 00:17:00,44.9,26.9,30.07,SSE,161,2.0,3.0,49,0.00,,,0.00,Wunderground v.1.15,2014-04-17 05:17:00,
2014-04-17 00:22:00,44.9,27.4,30.07,SSE,162,2.0,4.0,50,0.00,,,0.00,Wunderground v.1.15,2014-04-17 05:22:00,
2014-04-17 00:27:00,44.9,27.4,30.06,SSE,167,1.0,4.0,50,0.00,,,0.00,Wunderground v.1.15,2014-04-17 05:27:00,
2014-04-17 00:32:00,44.9,26.9,30.06,SSE,165,0.0,2.0,49,0.00,,,0.00,Wunderground v.1.15,2014-04-17 05:32:00,
2014-04-17 00:37:00,44.9,27.4,30.06,East,97,2.0,3.0,50,0.00,,,0.00,Wunderground v.1.15,2014-04-17 05:37:00,
2014-04-17 00:42:00,44.8,27.3,30.07,East,98,0.0,1.0,50,0.00,,,0.00,Wunderground v.1.15,2014-04-17 05:42:00,
2014-04-17 00:47:00,44.8,27.3,30.07,South,173,2.0,3.0,50,0.00,,,0.00,Wunderground v.1.15,2014-04-17 05:47:00,
2014-04-17 00:52:00,44.6,27.6,30.07,South,173,0.0,2.0,51,0.00,,,0.00,Wunderground v.1.15,2014-04-17 05:52:00,
2014-04-17 00:57:00,44.5,27.5,30.06,SSE,165,3.0,4.0,51,0.00,,,0.00,Wunderground v.1.15,2014-04-17 05:57:00,
2014-04-17 01:02:00,44.3,27.3,30.06,SSE,165,1.0,2.0,51,0.00,,,0.00,Wunderground v.1.15,2014-04-17 06:02:00,
2014-04-17 01:07:00,44.3,27.8,30.06,SSE,165,0.0,2.0,52,0.00,,,0.00,Wunderground v.1.15,2014-04-17 06:07:00,
2014-04-17 01:12:00,44.2,27.7,30.07,SSE,165,0.0,2.0,52,0.00,,,0.00,Wunderground v.1.15,2014-04-17 06:12:00,
2014-04-17 01:17:00,44.2,27.7,30.07,SSE,165,0.0,3.0,52,0.00,,,0.00,Wunderground v.1.15,2014-04-17 06:17:00,
2014-04-17 01:22:00,44.2,27.7,30.07,SSE,165,0.0,1.0,52,0.00,,,0.00,Wunderground v.1.15,2014-04-17 06:22:00,
2014-04-17 01:27:00,44.1,28.0,30.07,SSE,165,0.0,2.0,53,0.00,,,0.00,Wunderground v.1.15,2014-04-17 06:27:00,
2014-04-17 01:32:00,43.9,27.9,30.07,SSE,165,1.0,2.0,53,0.00,,,0.00,Wunderground v.1.15,2014-04-17 06:32:00,
2014-04-17 01:37:00,43.9,28.3,30.07,SSE,165,0.0,3.0,54,0.00,,,0.00,Wunderground v.1.15,2014-04-17 06:37:00,
2014-04-17 01:42:00,43.8,28.2,30.07,SSE,165,0.0,1.0,54,0.00,,,0.00,Wunderground v.1.15,2014-04-17 06:42:00,
2014-04-17 01:47:00,43.8,28.2,30.07,SSE,165,0.0,1.0,54,0.00,,,0.00,Wunderground v.1.15,2014-04-17 06:47:00,
2014-04-17 01:52:00,43.6,28.0,30.07,SSE,165,0.0,1.0,54,0.00,,,0.00,Wunderground v.1.15,2014-04-17 06:52:00,
2014-04-17 01:57:00,43.3,28.2,30.07,SSE,165,0.0,1.0,55,0.00,,,0.00,Wunderground v.1.15,2014-04-17 06:57:00,
2014-04-17 02:02:00,43.2,28.1,30.07,SSE,165,0.0,0.0,55,0.00,,,0.00,Wunderground v.1.15,2014-04-17 07:02:00,
2014-04-17 02:07:00,42.9,28.3,30.07,SSE,165,0.0,1.0,56,0.00,,,0.00,Wunderground v.1.15,2014-04-17 07:07:00,
2014-04-17 02:12:00,42.8,28.6,30.07,SSE,165,0.0,1.0,57,0.00,,,0.00,Wunderground v.1.15,2014-04-17 07:12:00,
2014-04-17 02:17:00,42.5,28.8,30.07,SSE,165,0.0,1.0,58,0.00,,,0.00,Wunderground v.1.15,2014-04-17 07:17:00,
2014-04-17 02:22:00,42.3,28.6,30.07,SSE,165,0.0,0.0,58,0.00,,,0.00,Wunderground v.1.15,2014-04-17 07:22:00,
2014-04-17 02:27:00,42.2,28.9,30.07,SSE,165,0.0,0.0,59,0.00,,,0.00,Wunderground v.1.15,2014-04-17 07:27:00,
2014-04-17 02:32:00,41.9,28.6,30.07,SSE,165,0.0,2.0,59,0.00,,,0.00,Wunderground v.1.15,2014-04-17 07:32:00,
2014-04-17 02:37:00,41.8,28.9,30.07,SSE,165,0.0,2.0,60,0.00,,,0.00,Wunderground v.1.15,2014-04-17 07:37:00,
2014-04-17 02:42:00,41.6,29.1,30.07,SSE,165,0.0,0.0,61,0.00,,,0.00,Wunderground v.1.15,2014-04-17 07:42:00,
2014-04-17 02:47:00,41.6,29.1,30.07,SSE,165,0.0,0.0,61,0.00,,,0.00,Wunderground v.1.15,2014-04-17 07:47:00,
2014-04-17 02:52:00,41.5,28.6,30.07,SSE,165,0.0,0.0,60,0.00,,,0.00,Wunderground v.1.15,2014-04-17 07:52:00,
2014-04-17 02:57:00,41.5,29.0,30.08,SSE,165,0.0,0.0,61,0.00,,,0.00,Wunderground v.1.15,2014-04-17 07:57:00,
2014-04-17 03:02:00,41.3,28.9,30.08,SSE,165,0.0,1.0,61,0.00,,,0.00,Wunderground v.1.15,2014-04-17 08:02:00,
2014-04-17 03:07:00,41.3,29.3,30.08,SSE,165,0.0,2.0,62,0.00,,,0.00,Wunderground v.1.15,2014-04-17 08:07:00,
2014-04-17 03:12:00,41.3,29.3,30.08,SSE,165,0.0,1.0,62,0.00,,,0.00,Wunderground v.1.15,2014-04-17 08:12:00,
2014-04-17 03:17:00,41.2,29.2,30.08,SSE,165,0.0,1.0,62,0.00,,,0.00,Wunderground v.1.15,2014-04-17 08:17:00,
2014-04-17 03:22:00,41.2,29.2,30.08,SSE,165,0.0,0.0,62,0.00,,,0.00,Wunderground v.1.15,2014-04-17 08:22:00,
2014-04-17 03:27:00,41.2,29.2,30.08,SSE,165,0.0,1.0,62,0.00,,,0.00,Wunderground v.1.15,2014-04-17 08:27:00,
2014-04-17 03:32:00,41.1,29.1,30.08,SSE,165,0.0,0.0,62,0.00,,,0.00,Wunderground v.1.15,2014-04-17 08:32:00,
2014-04-17 03:37:00,41.2,29.2,30.08,SSE,165,0.0,0.0,62,0.00,,,0.00,Wunderground v.1.15,2014-04-17 08:37:00,
2014-04-17 03:42:00,41.2,29.2,30.08,SSE,165,0.0,0.0,62,0.00,,,0.00,Wunderground v.1.15,2014-04-17 08:42:00,
2014-04-17 03:47:00,41.2,28.8,30.08,SSE,165,0.0,1.0,61,0.00,,,0.00,Wunderground v.1.15,2014-04-17 08:47:00,
2014-04-17 03:52:00,41.2,28.8,30.08,SSE,165,0.0,0.0,61,0.00,,,0.00,Wunderground v.1.15,2014-04-17 08:52:00,
2014-04-17 03:57:00,41.3,28.9,30.08,SSE,165,0.0,0.0,61,0.00,,,0.00,Wunderground v.1.15,2014-04-17 08:57:00,
2014-04-17 04:02:00,41.3,28.9,30.08,SSE,165,0.0,0.0,61,0.00,,,0.00,Wunderground v.1.15,2014-04-17 09:02:00,
2014-04-17 04:07:00,41.3,28.9,30.08,SSE,165,0.0,0.0,61,0.00,,,0.00,Wunderground v.1.15,2014-04-17 09:07:00,
2014-04-17 04:12:00,41.3,28.9,30.08,SSE,165,0.0,0.0,61,0.00,,,0.00,Wunderground v.1.15,2014-04-17 09:12:00,
2014-04-17 04:17:00,41.5,29.0,30.08,SSE,165,0.0,0.0,61,0.00,,,0.00,Wunderground v.1.15,2014-04-17 09:17:00,
2014-04-17 04:22:00,41.5,29.0,30.08,SSE,165,0.0,0.0,61,0.00,,,0.00,Wunderground v.1.15,2014-04-17 09:22:00,
2014-04-17 04:26:00,41.5,29.0,30.08,SSE,165,0.0,0.0,61,0.00,,,0.00,Wunderground v.1.15,2014-04-17 09:26:00,
2014-04-17 04:31:00,41.5,29.0,30.08,SSE,165,0.0,0.0,61,0.00,,,0.00,Wunderground v.1.15,2014-04-17 09:31:00,
2014-04-17 04:36:00,41.5,29.0,30.08,SSE,165,0.0,0.0,61,0.00,,,0.00,Wunderground v.1.15,2014-04-17 09:36:00,
2014-04-17 04:41:00,41.5,29.0,30.08,SSE,165,0.0,1.0,61,0.00,,,0.00,Wunderground v.1.15,2014-04-17 09:41:00,
2014-04-17 04:46:00,41.6,29.5,30.08,SSE,165,2.0,2.0,62,0.00,,,0.00,Wunderground v.1.15,2014-04-17 09:46:00,
2014-04-17 04:51:00,41.8,29.3,30.08,SSE,165,1.0,1.0,61,0.00,,,0.00,Wunderground v.1.15,2014-04-17 09:51:00,